Home   Weather   Oranjestad   Past weeks

Flag for Aruba Past Weather in Oranjestad, Aruba — Yesterday and Last 2 Weeks

Now
88 °F

Passing clouds.


Feels Like: 100 °F
Forecast: 80 / 90 °F
Wind: 23 mph from East

Location: Queen Beatrix Airport - Aruba

Current Time: Apr 28, 2017 at 4:27:11 pm

Latest Report: Apr 28, 2017 at 4:00 pm


Visibility: N/A

Pressure: 29.80 "Hg

Humidity: 70%

Dew Point: 77 °F

Location of OranjestadLocation

Past Weather in Oranjestad — Graph

°F

Oranjestad Temperature Yesterday

Maximum temperature yesterday: 90 °F (at 11:00 am)
Minimum temperature yesterday: 81 °F (at 2:00 am)
Average temperature yesterday: 85 °F

High & Low Weather Summary for the Past Weeks

 TemperatureHumidityPressure
High91 °F (Apr 22, 12:00 pm)89% (Apr 15, 6:00 am)29.92 "Hg (Apr 15, 6:00 am)
Low79 °F (Apr 21, 6:00 am)59% (Apr 22, 12:00 pm)29.71 "Hg (Apr 23, 4:00 pm)
Average84 °F77%29.84 "Hg
* Reported Apr 13 3:00 pm — Apr 28 3:00 pm, Oranjestad, Weather by CustomWeather, © 2017

Note: Actual official high and low records may vary slightly from our data, if they occured in-between our weather recording intervals... More about our weather records

Advertising

Oranjestad Weather History for the Previous 24 Hours

Scroll right to see more
 ConditionsComfort  
Time TempWeatherWind HumidityBarometerVisibility
3:00 pm
Fri, Apr 28
90 °FPassing clouds.21 mph67%29.83 "HgN/A
2:00 pm88 °FPartly sunny.20 mph70%29.86 "HgN/A
1:00 pm90 °FPassing clouds.21 mph67%29.86 "HgN/A
12:00 pm90 °FPassing clouds.22 mph67%29.89 "HgN/A
11:00 am90 °FPassing clouds.22 mph67%29.89 "HgN/A
9:00 am86 °FPassing clouds.22 mph70%29.92 "HgN/A
8:00 am84 °FPassing clouds.21 mph74%29.89 "HgN/A
7:00 am82 °FPassing clouds.18 mph79%29.89 "HgN/A
6:00 am81 °FPassing clouds.18 mph79%29.86 "HgN/A
5:00 am81 °FPassing clouds.20 mph79%29.86 "HgN/A
4:00 am81 °FPassing clouds.22 mph84%29.83 "HgN/A
3:00 am82 °FPassing clouds.17 mph79%29.86 "HgN/A
2:00 am82 °FPassing clouds.17 mph79%29.86 "HgN/A
1:00 am82 °FPassing clouds.21 mph79%29.86 "HgN/A
12:00 am82 °FPassing clouds.18 mph84%29.86 "HgN/A
11:00 pm
Thu, Apr 27
82 °FPassing clouds.18 mph79%29.86 "HgN/A
10:00 pm82 °FPassing clouds.22 mph79%29.86 "HgN/A
9:00 pm82 °FPassing clouds.18 mph79%29.86 "HgN/A
7:00 pm82 °FPassing clouds.20 mph79%29.80 "HgN/A
6:00 pm84 °FScattered clouds.21 mph79%29.80 "HgN/A
5:00 pm88 °FScattered clouds.21 mph70%29.77 "HgN/A
4:00 pm88 °FScattered clouds.23 mph70%29.80 "HgN/A
Weather by CustomWeather, © 2017

See weather overviewHow to use our weather pages